Beaufort MCAS, SC

4:59 AM EDT on September 20, 2017 (GMT -0400)
Beaufort Marine Corps Air Station

Weather History for KNBC - November, 2010

Change the Weather History Date:

Tuesday, November 2, 2010

  Actual Average Record
Temperature  
Mean Temperature 62 °F -  
Max Temperature 70 °F 75 °F 87 °F (1961)
Min Temperature 55 °F 56 °F 32 °F (1955)
Degree Days  
Heating Degree Days 3    
Growing Degree Days 12 (Base 50)    
Moisture  
Dew Point 48 °F    
Average Humidity 67    
Maximum Humidity 90    
Minimum Humidity 45    
Precipitation  
Precipitation 0.00 in - - ()
Sea Level Pressure  
Sea Level Pressure 30.22 in    
Wind  
Wind Speed 10 mph (NNE)    
Max Wind Speed 14 mph    
Max Gust Speed 22 mph    
Visibility 10 miles    
Events      
Averages and records for this station are not official NWS values.
T = Trace of Precipitation, MM = Missing Value Source: NWS Daily Summary

Daily Weather History Graph

Daily Weather History Graph

Search for Another Location

Airport or City:

Trip Planner

Search our weather history database for the weather conditions in past years. The results will help you decide how hot, cold, wet, or windy it might be!

Date:

Astronomy

Nov. 02, 2010 Rise Set
Actual Time 7:40 AM EDT 6:31 PM EDT
Civil Twilight 7:15 AM EDT 6:56 PM EDT
Nautical Twilight 6:46 AM EDT 7:25 PM EDT
Astronomical Twilight 6:17 AM EDT 7:54 PM EDT
Moon 3:39 AM EDT (11/2) 3:58 PM EDT (11/2)
Length of Visible Light 11h 41m
Length of Day
10h 50m
Waning Crescent, 17% of the Moon is Illuminated
Nov 2
Waning Crescent
Nov 6
New
Nov 13
First Quarter
Nov 21
Full
Nov 28
Last Quarter

Hourly Weather History & Observations

Time (EDT) Temp. Dew Point Humidity Pressure Visibility Wind Dir Wind Speed Gust Speed Precip Events Conditions
12:56 AM 60.1 °F 57.0 °F 90% 30.22 in 9.0 mi NNE 6.9 mph - N/A   Clear
1:56 AM 61.0 °F 57.0 °F 87% 30.22 in 9.0 mi NE 8.1 mph - N/A   Clear
2:56 AM 60.1 °F 55.9 °F 86% 30.21 in 10.0 mi NNE 5.8 mph - N/A   Clear
3:56 AM 60.1 °F 55.9 °F 86% 30.21 in 10.0 mi NE 11.5 mph - N/A   Mostly Cloudy
4:56 AM 60.1 °F 55.0 °F 83% 30.20 in 10.0 mi NE 9.2 mph - N/A   Scattered Clouds
5:56 AM 59.0 °F 54.0 °F 83% 30.22 in 10.0 mi NNE 11.5 mph - N/A   Partly Cloudy
6:56 AM 57.0 °F 53.1 °F 87% 30.23 in 10.0 mi NNE 11.5 mph 17.3 mph N/A   Scattered Clouds
7:42 AM 55.4 °F 51.8 °F 88% 30.24 in 10.0 mi NNE 13.8 mph 20.7 mph N/A   Mostly Cloudy
7:56 AM 55.9 °F 51.1 °F 84% 30.25 in 10.0 mi NNE 11.5 mph 19.6 mph N/A   Mostly Cloudy
8:56 AM 55.9 °F 50.0 °F 80% 30.28 in 10.0 mi North 13.8 mph - N/A   Mostly Cloudy
9:56 AM 57.0 °F 46.0 °F 67% 30.28 in 10.0 mi NNE 13.8 mph 21.9 mph N/A   Mostly Cloudy
10:56 AM 57.9 °F 43.0 °F 58% 30.28 in 10.0 mi NE 12.7 mph 18.4 mph N/A   Mostly Cloudy
11:56 AM 60.1 °F 43.0 °F 53% 30.27 in 10.0 mi NNE 10.4 mph - N/A   Overcast
12:56 PM 64.9 °F 45.0 °F 48% 30.25 in 10.0 mi NNE 12.7 mph - N/A   Mostly Cloudy
1:56 PM 66.9 °F 45.0 °F 45% 30.22 in 10.0 mi NNE 11.5 mph - N/A   Mostly Cloudy
2:56 PM 69.1 °F 46.9 °F 45% 30.19 in 10.0 mi NNE 9.2 mph - N/A   Mostly Cloudy
3:56 PM 64.9 °F 45.0 °F 48% 30.18 in 10.0 mi North 12.7 mph - N/A   Mostly Cloudy
4:56 PM 63.0 °F 45.0 °F 52% 30.18 in 10.0 mi North 9.2 mph - N/A   Mostly Cloudy
5:03 PM 62.6 °F 46.4 °F 55% 30.17 in 10.0 mi North 12.7 mph - N/A   Overcast
5:56 PM 60.1 °F 44.1 °F 55% 30.17 in 10.0 mi NNE 12.7 mph 21.9 mph N/A   Overcast
6:56 PM 59.0 °F 45.0 °F 60% 30.18 in 10.0 mi NNE 11.5 mph 17.3 mph N/A   Overcast
7:56 PM 57.9 °F 45.0 °F 62% 30.19 in 10.0 mi NNE 10.4 mph - N/A   Overcast
8:56 PM 59.0 °F 42.1 °F 53% 30.21 in 10.0 mi NNE 12.7 mph - N/A   Overcast
9:56 PM 57.9 °F 44.1 °F 60% 30.20 in 10.0 mi North 10.4 mph - N/A   Overcast
10:04 PM 57.2 °F 44.6 °F 63% 30.20 in 10.0 mi North 9.2 mph - N/A   Overcast
10:56 PM 57.0 °F 45.0 °F 64% 30.19 in 10.0 mi North 10.4 mph - N/A   Scattered Clouds
11:56 PM 57.0 °F 46.0 °F 67% 30.17 in 10.0 mi NNE 9.2 mph - N/A   Scattered Clouds